Regional Weather Roundup
Issued by NWS Bismarck, ND

Home | Current Version | Previous Version | Text Only | Print | Product List | Glossary On
Versions: 1 2 3 4 5 6 7 8 9 10 11 12 13 14 15 16 17 18 19 20 21 22 23 24 25 26 27 28 29 30 31 32 33 34 35 36 37 38 39 40 41 42 43 44 45 46 47 48 49 50
000
ASUS43 KBIS 271659
RWRBIS

NWR BROADCAST TEXT
NATIONAL WEATHER SERVICE BISMARCK ND
1200 PM CDT WED AUG 27 2014

NOTE: "FAIR" INDICATES FEW OR NO CLOUDS BELOW 12,000 FEET WITH NO
SIGNIFICANT WEATHER AND/OR OBSTRUCTIONS TO VISIBILITY.


CITY           SKY/WX    TMP DP  RH WIND       PRES   REMARKS
WILLISTON      SUNNY     70  57  63 VRB7      30.08F
MINOT          SUNNY     70  55  59 SE10      30.11F
MINOT AFB      NOT AVBL
BISMARCK       SUNNY     68  58  70 SE6       30.16F
DICKINSON      SUNNY     70  58  65 S12       30.12F
GARRISON         N/A     68  59  73 S10       30.14S
HETTINGER ARPT SUNNY     70  57  63 SE12G20   30.15F
JAMESTOWN      NOT AVBL
BEACH            N/A     68  61  77 S12G18    30.12F
CARRINGTON     FAIR      66  61  82 SE8       30.18S
CROSBY         FAIR      73  59  60 S10       30.07F
HARVEY         FAIR      70  55  60 S10       30.15S
HAZEN          FAIR      68  55  64 S9        30.14F
LINTON         FAIR      70  63  78 SE9       30.16S
MANDAN         FAIR      64  57  77 SE6       30.17F
OAKES            N/A     68  61  77 E6        30.18F
RUGBY          FAIR      66  55  68 S10       30.14F
STANLEY        FAIR      68  63  83 S12       30.12S
TIOGA          FAIR      72  63  73 S9G18     30.13S
WATFORD CITY   FAIR      73  57  56 S10       30.07F
$$

CITY           SKY/WX    TMP DP  RH WIND       PRES   REMARKS
GRAND FORKS    MOSUNNY   69  54  58 S7        30.17S
GRAND FORKS AF NOT AVBL
DEVILS LAKE    SUNNY     64  52  63 S6        30.15F
FARGO          MOSUNNY   69  58  67 E3        30.19F
CAVALIER       FAIR      70  52  52 S5        30.15S
GRAFTON        FAIR      70  54  56 S7        30.16S
GWINNER        SUNNY     70  59  68 SE8       30.19F
LANGDON        FAIR      70  50  49 SW10      30.16S
ROLLA          FAIR      64  54  68 SW10      30.16S
WALHALLA         N/A     70  50  49 W3        30.15S
$$

CITY           SKY/WX    TMP DP  RH WIND       PRES   REMARKS
ABERDEEN       MOSUNNY   70  60  70 S14       30.17F
MOBRIDGE       SUNNY     71  61  70 SE5       30.12F
RAPID CITY     SUNNY     70  60  70 NE12      30.14S
GLASGOW        SUNNY     72  55  55 SE8       30.00F
SIDNEY         SUNNY     70  61  73 S6        30.09S
WOLF POINT     SUNNY     75  58  55 NE5       30.02F
GLENDIVE       SUNNY     70  61  73 SE8       30.09F
MILES CITY     SUNNY     74  58  57 SE6       30.07F
BAKER          SUNNY     73  57  57 SE16      30.12F
$$

CITY           SKY/WX    TMP DP  RH WIND       PRES   REMARKS
BILLINGS       MOSUNNY   70  54  56 SW7       30.10F
GREAT FALLS    SUNNY     74  45  35 SW10      30.07S
$$




USA.gov is the U.S. government's official web portal to all federal, state and local government web resources and services.